Date String (YYYY-MM-DD hh:mm:ss) UTC,Instrument flags,absolute air pressure of the measurement (hPa),sample flow rate (lpm),inlet stack bypass flow (lpm),air temperature of the measurement (°C),ambient temperature measured by the external sensor (°C),aerosol sample conditioner tube jacket temperature (°C),OPC LED temperature (°C),internal box temperature (°C),relative humidity of the measurement (%),span deviation,mass concentration of particles derived from Lorenz-Mie calculation of OPC scattering (μg/m³),mass concentration of particles derived from Lorenz-Mie calculation of OPC scattering (μg/m³),mass concentration of particles derived from Lorenz-Mie calculation of OPC scattering (μg/m³)
DateTimeUTC,F1_M11,P_M11,Q1_M11,Q2_M11,T1_M11,T2_M11,T3_M11,T4_M11,T5_M11,U1_M11,ZSPAN_M11,X0_M11,X2_M11,X1_M11
2023-07-14 13:00:00,SystemResetWarning,0831.3,4.99,000.00,029.6,028.3,000.0,038.1,031.3,14.6,0000.0,0009.30,0003.72,0003.23
2023-07-14 13:01:00,SystemResetWarning,0831.3,4.99,000.00,029.7,028.4,000.0,038.1,031.3,15.1,0000.0,0009.29,0003.72,0003.24
2023-07-14 13:02:00,SystemResetWarning,0831.4,5.00,000.00,029.7,028.4,000.0,038.1,031.3,14.3,0000.0,0008.84,0003.73,0003.25
2023-07-14 13:03:00,SystemResetWarning,0831.5,5.02,000.00,029.7,028.5,000.0,038.2,031.4,14.5,0000.0,0008.36,0003.71,0003.25
2023-07-14 13:04:00,SystemResetWarning,0831.5,5.00,000.00,029.8,028.6,000.0,038.2,031.4,17.2,0000.0,0007.87,0003.72,0003.25
2023-07-14 13:05:00,SystemResetWarning,0831.6,4.99,000.00,029.8,028.6,000.0,038.2,031.4,18.4,0000.0,0007.82,0003.73,0003.25
2023-07-14 13:06:00,SystemResetWarning,0831.6,4.99,000.00,029.8,027.3,000.0,038.1,031.3,18.7,0000.0,0007.76,0003.75,0003.26
2023-07-14 13:07:00,SystemResetWarning,0831.6,5.01,000.00,029.7,025.5,000.0,038.0,030.9,19.9,0000.0,0007.72,0003.75,0003.26
2023-07-14 13:08:00,SystemResetWarning,0831.7,5.00,000.00,029.6,025.3,000.0,037.9,030.8,20.4,0000.0,0007.76,0003.76,0003.25
2023-07-14 13:09:00,SystemResetWarning,0831.7,5.01,000.00,029.5,025.6,000.0,037.9,030.7,20.9,0000.0,0007.60,0003.74,0003.25
2023-07-14 13:10:00,SystemResetWarning,0831.7,5.01,000.00,029.4,026.0,000.0,037.9,030.7,21.4,0000.0,0007.85,0003.69,0003.25
2023-07-14 13:11:00,SystemResetWarning,0831.7,5.00,000.00,029.4,026.4,000.0,038.0,030.8,22.2,0000.0,0007.42,0003.64,0003.24
2023-07-14 13:12:00,SystemResetWarning,0831.9,5.00,000.00,029.4,026.8,000.0,038.0,030.8,22.9,0000.0,0007.30,0003.62,0003.23
2023-07-14 13:13:00,SystemResetWarning,0831.9,5.00,000.00,029.4,027.1,000.0,038.0,030.9,23.4,0000.0,0007.56,0003.62,0003.23
2023-07-14 13:14:00,SystemResetWarning,0832.0,5.00,000.00,029.4,027.3,000.0,038.0,030.9,24.3,0000.0,0008.29,0003.65,0003.23
2023-07-14 13:15:00,SystemResetWarning,0832.0,4.99,000.00,029.4,027.6,000.0,038.0,031.0,24.7,0000.0,0009.27,0003.62,0003.22
2023-07-14 13:16:00,SystemResetWarning,0832.0,4.99,000.00,029.5,027.8,000.0,038.0,031.0,25.2,0000.0,0010.30,0003.65,0003.23
2023-07-14 13:17:00,SystemResetWarning,0832.0,4.99,000.00,029.5,027.9,000.0,038.0,031.1,25.4,0000.0,0012.05,0003.67,0003.25
2023-07-14 13:18:00,SystemResetWarning,0832.0,5.00,000.00,029.5,028.0,000.0,038.0,031.1,25.6,0000.0,0012.88,0003.73,0003.30
2023-07-14 13:19:00,SystemResetWarning,0832.0,5.00,000.00,029.5,028.2,000.0,038.0,031.1,25.9,0000.0,0013.20,0003.80,0003.35
2023-07-14 13:20:00,SystemResetWarning,0832.0,5.00,000.00,029.6,028.3,000.0,038.0,031.2,25.9,0000.0,0013.76,0003.89,0003.39
2023-07-14 13:21:00,SystemResetWarning,0832.0,5.01,000.00,029.6,028.3,000.0,038.0,031.2,25.9,0000.0,0014.31,0003.98,0003.44
2023-07-14 13:22:00,SystemResetWarning,0832.0,5.01,000.00,029.6,028.4,000.0,038.1,031.3,26.2,0000.0,0015.14,0004.11,0003.50
2023-07-14 13:23:00,SystemResetWarning,0832.0,4.99,000.00,029.7,028.5,000.0,038.1,031.3,26.4,0000.0,0015.51,0004.25,0003.56
2023-07-14 13:24:00,SystemResetWarning,0832.1,4.99,000.00,029.7,028.5,000.0,038.1,031.3,27.0,0000.0,0015.46,0004.36,0003.62
2023-07-14 13:25:00,SystemResetWarning,0832.1,5.00,000.00,029.7,028.6,000.0,038.1,031.4,27.2,0000.0,0015.21,0004.47,0003.68
2023-07-14 13:26:00,SystemResetWarning,0832.2,5.01,000.00,029.7,028.6,000.0,038.2,031.4,27.4,0000.0,0014.84,0004.66,0003.75
2023-07-14 13:27:00,SystemResetWarning,0832.2,5.00,000.00,029.8,028.7,000.0,038.2,031.4,27.6,0000.0,0014.95,0004.75,0003.81
2023-07-14 13:28:00,SystemResetWarning,0832.2,4.99,000.00,029.8,028.7,000.0,038.2,031.5,27.7,0000.0,0014.26,0004.83,0003.86
2023-07-14 13:29:00,SystemResetWarning,0832.2,4.99,000.00,029.8,028.2,000.0,038.2,031.4,27.9,0000.0,0013.80,0004.85,0003.89
2023-07-14 13:30:00,SystemResetWarning,0832.2,5.00,000.00,029.8,026.5,000.0,038.1,031.2,27.9,0000.0,0014.26,0004.93,0003.92
2023-07-14 13:31:00,SystemResetWarning,0832.2,5.00,000.00,029.7,026.2,000.0,038.0,031.1,27.9,0000.0,0014.46,0005.04,0003.99
2023-07-14 13:32:00,SystemResetWarning,0832.2,5.00,000.00,029.6,026.4,000.0,038.0,030.9,28.3,0000.0,0013.90,0005.17,0004.04
2023-07-14 13:33:00,SystemResetWarning,0832.2,5.00,000.00,029.6,026.7,000.0,038.1,030.9,28.4,0000.0,0013.95,0005.22,0004.10
2023-07-14 13:34:00,SystemResetWarning,0832.2,5.00,000.00,029.6,027.0,000.0,038.1,031.0,28.4,0000.0,0014.20,0005.28,0004.15
2023-07-14 13:35:00,SystemResetWarning,0832.3,5.00,000.00,029.6,027.3,000.0,038.1,031.1,28.6,0000.0,0015.07,0005.36,0004.21
2023-07-14 13:36:00,SystemResetWarning,0832.3,5.00,000.00,029.6,027.6,000.0,038.1,031.1,28.5,0000.0,0014.89,0005.37,0004.25
2023-07-14 13:37:00,SystemResetWarning,0832.3,5.00,000.00,029.6,027.8,000.0,038.1,031.2,28.7,0000.0,0014.87,0005.39,0004.31
2023-07-14 13:38:00,SystemResetWarning,0832.3,4.99,000.00,029.6,028.0,000.0,038.1,031.2,29.2,0000.0,0014.50,0005.43,0004.38
2023-07-14 13:39:00,SystemResetWarning,0832.4,4.99,000.00,029.7,028.1,000.0,038.2,031.3,29.2,0000.0,0013.66,0005.51,0004.44
2023-07-14 13:40:00,SystemResetWarning,0832.5,5.01,000.00,029.7,028.3,000.0,038.2,031.3,29.5,0000.0,0013.90,0005.68,0004.53
2023-07-14 13:41:00,SystemResetWarning,0832.5,5.01,000.00,029.7,028.4,000.0,038.2,031.3,29.6,0000.0,0014.18,0005.82,0004.62
2023-07-14 13:42:00,SystemResetWarning,0832.5,5.00,000.00,029.7,028.5,000.0,038.2,031.4,29.1,0000.0,0014.94,0005.84,0004.67
2023-07-14 13:43:00,SystemResetWarning,0832.5,4.98,000.00,029.8,028.4,000.0,038.2,031.4,29.2,0000.0,0015.62,0005.88,0004.72
2023-07-14 13:44:00,SystemResetWarning,0832.4,5.00,000.00,029.8,026.8,000.0,038.1,031.2,28.9,-001.2,0015.71,0006.00,0004.78
2023-07-14 13:45:00,SystemResetWarning,0832.4,5.00,000.00,029.7,025.2,000.0,038.0,030.9,28.4,-001.6,0015.53,0006.05,0004.82
2023-07-14 13:46:00,SystemResetWarning,0832.4,5.01,000.00,029.6,025.1,000.0,037.9,030.8,28.8,-001.7,0015.01,0006.11,0004.87
2023-07-14 13:47:00,SystemResetWarning,0832.5,5.01,000.00,029.5,025.4,000.0,037.9,030.7,29.3,-001.4,0016.00,0006.19,0004.90
2023-07-14 13:48:00,SystemResetWarning,0832.5,5.00,000.00,029.4,025.9,000.0,038.0,030.7,28.9,-002.0,0017.28,0006.27,0004.94
2023-07-14 13:49:00,SystemResetWarning,0832.5,4.99,000.00,029.4,026.3,000.0,038.0,030.8,28.8,-002.3,0017.67,0006.34,0004.97
2023-07-14 13:50:00,SystemResetWarning,0832.6,5.00,000.00,029.4,026.7,000.0,038.0,030.8,29.2,-002.3,0017.77,0006.40,0004.99
2023-07-14 13:51:00,SystemResetWarning,0832.6,5.01,000.00,029.4,027.0,000.0,038.0,030.9,29.1,-001.8,0017.99,0006.35,0004.98
2023-07-14 13:52:00,SystemResetWarning,0832.5,4.99,000.00,029.4,027.3,000.0,038.0,030.9,29.2,-001.2,0017.78,0006.34,0004.99
2023-07-14 13:53:00,SystemResetWarning,0832.5,4.99,000.00,029.4,027.6,000.0,038.0,031.0,29.4,-001.4,0016.81,0006.37,0004.99
2023-07-14 13:54:00,SystemResetWarning,0832.6,5.00,000.00,029.4,027.8,000.0,038.0,031.0,29.9,-001.3,0016.87,0006.40,0005.00
2023-07-14 13:55:00,SystemResetWarning,0832.5,5.00,000.00,029.5,027.9,000.0,038.0,031.1,29.3,-001.1,0018.06,0006.40,0005.00
2023-07-14 13:56:00,SystemResetWarning,0832.5,5.01,000.00,029.5,028.1,000.0,038.0,031.1,29.0,-000.0,0018.88,0006.41,0004.99
2023-07-14 13:57:00,SystemResetWarning,0832.5,5.01,000.00,029.5,028.2,000.0,038.0,031.2,28.8,0000.3,0019.25,0006.38,0004.99
2023-07-14 13:58:00,SystemResetWarning,0832.6,5.00,000.00,029.6,028.3,000.0,038.0,031.2,28.6,0000.0,0019.27,0006.38,0004.99
2023-07-14 13:59:00,SystemResetWarning,0832.6,4.98,000.00,029.6,028.4,000.0,038.0,031.3,28.2,0000.0,0019.20,0006.37,0004.97
